This is the latest recevied weather packets stored in our database for station/object LY3FF-10. If no packets are shown the sender has not sent any weather packets the latest 10 day(s).
| Time | Temp. | Humidity | Pressure | Rain* | Wind** | Luminosity | Snow |
|---|---|---|---|---|---|---|---|
| 1777447812 | 7.78° C | 49% | 1003 hPa | - | - | - | - |
| 1777446937 | 6.67° C | 50% | 1003 hPa | - | - | - | - |
| 1777446142 | 6.67° C | 51% | 1002.9 hPa | - | - | - | - |
| 1777445373 | 6.67° C | 52% | 1002.9 hPa | - | - | - | - |
| 1777444578 | 6.11° C | 53% | 1002.7 hPa | - | - | - | - |
| 1777443848 | 5.56° C | 54% | 1002.6 hPa | - | - | - | - |
| 1777442988 | 5° C | 55% | 1002.5 hPa | - | - | - | - |
| 1777442237 | 4.44° C | 56% | 1002.4 hPa | - | - | - | - |
| 1777441438 | 4.44° C | 56% | 1002.4 hPa | - | - | - | - |
| 1777440537 | 3.89° C | 56% | 1002.2 hPa | - | - | - | - |
| 1777439763 | 3.33° C | 57% | 1002 hPa | - | - | - | - |
| 1777438908 | 3.33° C | 56% | 1002 hPa | - | - | - | - |
| 1777438118 | 2.78° C | 57% | 1001.9 hPa | - | - | - | - |
| 1777437322 | 2.78° C | 56% | 1001.8 hPa | - | - | - | - |
| 1777436529 | 2.22° C | 56% | 1001.7 hPa | - | - | - | - |
| 1777435732 | 2.22° C | 56% | 1001.5 hPa | - | - | - | - |
| 1777434912 | 1.67° C | 56% | 1001.4 hPa | - | - | - | - |
| 1777434052 | 1.11° C | 56% | 1001.4 hPa | - | - | - | - |
| 1777433308 | 1.11° C | 56% | 1001.3 hPa | - | - | - | - |
| 1777432523 | 1.11° C | 57% | 1001.2 hPa | - | - | - | - |
| 1777431762 | 1.11° C | 57% | 1001.1 hPa | - | - | - | - |
| 1777430928 | 0.56° C | 58% | 1000.9 hPa | - | - | - | - |
| 1777430137 | 1.11° C | 57% | 1000.9 hPa | - | - | - | - |
| 1777429402 | 1.11° C | 57% | 1000.6 hPa | - | - | - | - |
| 1777428623 | 1.11° C | 56% | 1000.7 hPa | - | - | - | - |
* Rain since midnight (hover to see other rain measurements)
** Current wind speed in m/s (hover to see current wind gust speed)